Regional Weather Roundup
Issued by NWS State College, PA

Home | Current Version | Previous Version | Graphics & Text | Print | Product List | Glossary On
Versions: 1 2 3 4 5 6 7 8 9 10 11 12 13 14 15 16 17 18 19 20 21 22 23 24 25 26 27 28 29 30 31 32 33 34 35 36 37 38 39 40 41 42 43 44 45 46 47 48 49 50
000
ASUS41 KCTP 301110
RWRCTP

REGIONAL WEATHER ROUNDUP
NATIONAL WEATHER SERVICE STATE COLLEGE PA
700 AM EDT THU OCT 30 2014

Note: "fair" indicates few or no clouds below 12,000 feet with no
significant weather and/or obstructions to visibility.

* = STATION THAT DOES NOT REPORT PRECIPITATION /E.G. RAIN...SNOW...ETC/
    THUNDER OR FOG.

PAZ002>004-007>009-013>016-020>023-029>032-301200-
WESTERN PENNSYLVANIA

CITY           SKY/WX    TMP DP  RH WIND       PRES   REMARKS
ERIE           CLOUDY    46  36  68 N8        30.07R
MEADVILLE      CLOUDY    42  40  92 CALM      30.06R FOG
FRANKLIN*      CLOUDY    41  36  81 W6        30.06S
NEW CASTLE       N/A     43  39  85 CALM      30.09R
BEAVER COUNTY  CLOUDY    43  37  81 NW5       30.07
BUTLER*        CLOUDY    43  36  75 W3        30.08S
PITTSBURGH INT PTCLDY    36  34  92 CALM      30.07R
PITTSBURGH     MOCLDY    39  32  76 W8        30.07R
INDIANA*       CLOUDY    41  37  87 CALM      30.09R
LATROBE        CLOUDY    39  37  93 SW9       30.09R
WASHINGTON CO* CLEAR     32  28  86 CALM      30.10R
$$

PAZ004>006-010>012-017>019-024>028-033>037-041-042-045-046-049>053-301200-
CENTRAL PENNSYLVANIA

CITY           SKY/WX    TMP DP  RH WIND       PRES   REMARKS
BRADFORD       CLOUDY    39  36  89 NW6       30.01S
DUBOIS         CLOUDY    40  38  93 W6        30.02R
CLEARFIELD     CLOUDY    43  37  79 NW7       30.03R
JOHNSTOWN      CLOUDY    40  34  79 W6        30.03R
ALTOONA        MOCLDY    43  36  76 NW6       30.03S
STATE COLLEGE  CLOUDY    43  37  81 W6        30.03R
WILLIAMSPORT   CLOUDY    44  39  82 CALM      30.01R
SELINSGROVE    MOCLDY    37  36  96 CALM      30.03R
FT INDIANTOWN  CLEAR     47  46  95 W8        30.02R
CAPITAL CITY   PTCLDY    42  38  85 CALM      30.03R
HARRISBURG     CLEAR     43  39  86 NW7       30.02
YORK           CLEAR     40  39  97 W5        30.03R
$$

PAZ038>040-043-044-047-048-054-055-060>062-067>071-301200-
EASTERN PENNSYLVANIA

CITY           SKY/WX    TMP DP  RH WIND       PRES   REMARKS
SCRANTON       CLOUDY    43  39  86 CALM      29.99R
MOUNT POCONO   PTCLDY    32  31  96 W5        29.96S FOG
ALLENTOWN      PTCLDY    37  36  93 CALM      30.00R FOG
QUAKERTOWN*    SUNNY     34  34 100 NW3       30.00R
READING        FOG       43  41  93 CALM      30.00R VSB 1/2
LANCASTER      FOG       39  39 100 W7        30.01S VSB 3/4
COATESVILLE    PTSUNNY   43  43 100 W7        30.00S FOG
POTTSTOWN      FOG       38  37  97 NW3       30.01R VSB 3/4
BLUE BELL      CLOUDY    43  43 100 CALM      29.99R VSB 3/4
DOYLESTOWN     FOG       40  40 100 CALM      29.99R VSB 3/4
WILLOW GROVE   NOT AVBL
NORTH PHILA    CLEAR     46  41  82 NW6       30.00R
PHILADELPHIA   CLEAR     48  41  76 NW5       30.00R
$$



USA.gov is the U.S. government's official web portal to all federal, state and local government web resources and services.